This demonstration page uses our WeatherBlox Daily Observations layout. Learn more.

Left ArrowRight Arrow

Hourly Observations for March 20, 2017

Temp ( °F °C ) Dew Point ( °F °C ) Humidity (%) Winds ( mph kmh ) Pressure ( in mb ) Visibility ( mi km ) Precip ( " mm )
12:52 am 00:52 Clear 61 16.1 46 7.8 58 58 SSE 16 26 30.00 1016 10 16 0.00 0.00
1:52 am 01:52 Clear 59 15 46 7.8 62 62 SSE 15 24 29.99 1016 10 16 0.00 0.00
2:52 am 02:52 Clear 58 14.4 46 7.8 65 65 SSE 15 24 29.97 1015 10 16 0.00 0.00
3:52 am 03:52 Clear 57 13.9 46 7.8 67 67 SSE 14 22 29.95 1014 10 16 0.00 0.00
4:52 am 04:52 Clear 56 13.3 47 8.3 72 72 SSE 14 22 29.94 1014 10 16 0.00 0.00
5:52 am 05:52 Clear 56 13.3 48 8.9 75 75 SSE 14 22 29.93 1014 10 16 0.00 0.00
6:52 am 06:52 Clear 56 13.3 48 8.9 75 75 S 14 22 29.93 1014 10 16 0.00 0.00
7:52 am 07:52 Sunny 58 14.4 51 10.6 78 78 S 12 19 29.93 1013 10 16 0.00 0.00
8:52 am 08:52 Sunny 64 17.8 55 12.8 73 73 S 13 20 29.92 1013 10 16 0.00 0.00
9:52 am 09:52 Sunny 74 23.3 57 13.9 56 56 SW 13 20 29.93 1013 10 16 0.00 0.00
10:52 am 10:52 Sunny 77 25 56 13.3 48 48 WSW 17 28 29.92 1013 10 16 0.00 0.00
11:52 am 11:52 Sunny 80 26.7 56 13.3 44 44 WSW 17 28 29.92 1013 10 16 0.00 0.00
12:52 pm 12:52 Sunny 81 27.2 56 13.3 42 42 WNW 12 19 29.92 1013 10 16 0.00 0.00
1:52 pm 13:52 Sunny 82 27.8 56 13.3 41 41 WNW 10 17 29.91 1013 10 16 0.00 0.00
2:52 pm 14:52 Sunny 83 28.3 56 13.3 40 40 W 6 9 29.89 1012 10 16 0.00 0.00
3:52 pm 15:52 Sunny 83 28.3 56 13.3 40 40 SW 5 7 29.88 1012 10 16 0.00 0.00
4:52 pm 16:52 Sunny 84 28.9 55 12.8 37 37 WSW 8 13 29.87 1012 10 16 0.00 0.00
5:52 pm 17:52 Sunny 83 28.3 57 13.9 41 41 W 9 15 29.88 1012 10 16 0.00 0.00
6:52 pm 18:52 Sunny 80 26.7 56 13.3 44 44 WNW 7 11 29.90 1013 10 16 0.00 0.00
7:52 pm 19:52 Clear 73 22.8 56 13.3 55 55 NNW 5 7 29.92 1013 10 16 0.00 0.00
8:52 pm 20:52 Clear 66 18.9 55 12.8 68 68 Calm 29.93 1014 10 16 0.00 0.00
9:52 pm 21:52 Mostly Clear 66 18.9 55 12.8 68 68 Calm 29.94 1014 10 16 0.00 0.00
10:52 pm 22:52 Clear 65 18.3 55 12.8 70 70 N 9 15 29.96 1014 10 16 0.00 0.00
11:52 pm 23:52 Clear 67 19.4 56 13.3 68 68 NE 9 15 29.96 1015 10 16 0.00 0.00

Powered by AerisWeather